Regional Weather Roundup
Issued by NWS Little Rock, AR

Home | Current Version | Previous Version | Graphics & Text | Print | Product List | Glossary On
Versions: 1 2 3 4 5 6 7 8 9 10 11 12 13 14 15 16 17 18 19 20 21 22 23 24 25 26 27 28 29 30 31 32 33 34 35 36 37 38 39 40 41 42 43 44 45 46 47 48 49 50
000
ASUS44 KLZK 052305
RWRLZK

WEATHER ROUNDUP FOR ARKANSAS
NATIONAL WEATHER SERVICE LITTLE ROCK AR
600 PM CDT THU MAY 05 2016

NOTE: "FAIR" INDICATES FEW OR NO CLOUDS BELOW 12,000 FEET WITH NO
SIGNIFICANT WEATHER AND/OR OBSTRUCTIONS TO VISIBILITY.

ARZ001-003-010-029-060000-
NORTHWEST ARKANSAS

CITY           SKY/WX    TMP DP  RH WIND       PRES   REMARKS
FAYETTEVILLE   SUNNY     71  43  36 N8        30.01F
FORT SMITH     SUNNY     77  40  26 NW12      29.98F
HARRISON       SUNNY     70  37  29 NW9       30.01S
BENTONVILLE    SUNNY     72  39  30 N12       30.03F
ROGERS         SUNNY     70  40  33 N8        30.03F
SILOAM SPGS    SUNNY     72  46  40 N10       30.03S
HIGHFILL       SUNNY     74  44  34 N12       30.02S
SPRINGDALE     SUNNY     72  41  33 N16G24    30.04S
$$

ARZ004-005-016-060000-
NORTH CENTRAL ARKANSAS

CITY           SKY/WX    TMP DP  RH WIND       PRES   REMARKS
BATESVILLE     SUNNY     72  34  25 N5        29.97S
FLIPPIN        SUNNY    N/A N/A N/A N9G16     29.97S
MTN HOME       SUNNY     71  33  24 VRB6      29.98F
$$

ARZ040-041-060000-
WEST CENTRAL ARKANSAS

CITY           SKY/WX    TMP DP  RH WIND       PRES   REMARKS
MENA           SUNNY     77  45  31 N6        29.99F
MOUNT IDA      SUNNY     76  43  30 VRB6      29.95F
$$

ARZ009-017-025-026-028-060000-
NORTHEAST ARKANSAS

CITY           SKY/WX    TMP DP  RH WIND       PRES   REMARKS
CORNING          N/A     72  34  25 N13G20    29.97S
JONESBORO      SUNNY     72  37  28 NE13      29.95S
NEWPORT        SUNNY     73  31  21 N12       29.96S
WALNUT RIDGE   SUNNY     72  36  26 N14       29.96R
BLYTHEVILLE    SUNNY     68  43  40 NE18      29.97R
$$

ARZ022-023-033-042-044-060000-
CENTRAL ARKANSAS

CITY           SKY/WX    TMP DP  RH WIND       PRES   REMARKS
LITTLE ROCK    MOSUNNY   77  38  24 N16       29.95R
N LITTLE ROCK    N/A     74  44  34 N8G16     29.94S
JACKSONVILLE   SUNNY     75  42  30 N8        29.94S
SEARCY         SUNNY     73  39  29 N10       29.96F
HOT SPRINGS    SUNNY     77  41  27 N9        29.96F
RUSSELLVILLE   SUNNY     77  37  23 N8        29.95S
CLINTON        FAIR      73  39  29 N3        29.97S
$$

ARZ036-060000-
EAST ARKANSAS

CITY           SKY/WX    TMP DP  RH WIND       PRES   REMARKS
WEST MEMPHIS   SUNNY     70  37  29 N12G21    29.94R
$$

ARZ050-053-066-070-073-060000-
SOUTHWEST ARKANSAS

CITY           SKY/WX    TMP DP  RH WIND       PRES   REMARKS
ARKADELPHIA    FAIR      78  49  36 NW9       29.96F
CAMDEN         SUNNY     77  41  27 NW7       29.95F
TEXARKANA      SUNNY     78  44  29 N7        29.96F
EL DORADO      SUNNY     76  43  30 N10       29.96S
DE QUEEN       SUNNY     77  46  33 N8        29.95F
$$

ARZ056-057-069-060000-
SOUTHEAST ARKANSAS

CITY           SKY/WX    TMP DP  RH WIND       PRES   REMARKS
PINE BLUFF     SUNNY     75  42  30 N9        29.94F
STUTTGART      SUNNY     72  43  35 N12       29.95S
MONTICELLO     SUNNY     76  42  29 VRB3      29.94S

$$





USA.gov is the U.S. government's official web portal to all federal, state and local government web resources and services.